Weather History for KIEN - October, 2012

Change the Weather History Date:

Friday, October 5, 2012

  Actual Average Record
Temperature  
Mean Temperature 30 °F 52 °F  
Max Temperature 40 °F 68 °F 87 °F (2010)
Min Temperature 20 °F 36 °F 20 °F (2012)
Degree Days  
Heating Degree Days 35 13  
Month to date heating degree days 84 60  
Since 1 July heating degree days 223 282  
Cooling Degree Days 0 0  
Month to date cooling degree days 2 0  
Year to date cooling degree days 1103 714  
Moisture  
Dew Point 28 °F    
Average Humidity 75    
Maximum Humidity 96    
Minimum Humidity 54    
Precipitation  
Precipitation 0.05 in 0.05 in 0.71 in (1998)
Month to date precipitation 0.05 0.23  
Year to date precipitation 9.54 15.63  
Sea Level Pressure  
Sea Level Pressure 30.39 in    
Wind  
Wind Speed 3 mph (West)    
Max Wind Speed 12 mph    
Max Gust Speed 18 mph    
Visibility 6 miles    
Events Snow    
T = Trace of Precipitation, MM = Missing Value Source: NWS Daily Summary

Daily Weather History Graph

Daily Weather History Graph

Search for Another Location

Airport or City:

Trip Planner

Search our weather history database for the weather conditions in past years. The results will help you decide how hot, cold, wet, or windy it might be!

Date:

Astronomy

Oct. 05, 2012 Rise Set
Actual Time 6:52 AM MDT 6:23 PM MDT
Civil Twilight 6:24 AM MDT 6:51 PM MDT
Nautical Twilight 5:51 AM MDT 7:24 PM MDT
Astronomical Twilight 5:18 AM MDT 7:57 PM MDT
Moon 9:41 PM MDT (10/5) 12:09 PM MDT (10/5)
Length of Visible Light 12h 27m
Length of Day
11h 30m
Waning Gibbous, 73% of the Moon is Illuminated
Oct 5
Waning Gibbous
Oct 8
Last Quarter
Oct 15
New
Oct 21
First Quarter
Oct 29
Full

Hourly Weather History & Observations

Time (MDT) Temp. Windchill Dew Point Humidity Pressure Visibility Wind Dir Wind Speed Gust Speed Precip Events Conditions
12:52 AM 34.0 °F - 23.0 °F 64% 30.37 in 10.0 mi Calm Calm - N/A   Overcast
2:52 AM 35.1 °F 30.1 °F 23.0 °F 61% 30.36 in 10.0 mi SE 5.8 mph - N/A   Overcast
3:52 AM 37.0 °F 34.5 °F 23.0 °F 57% 30.35 in 10.0 mi South 3.5 mph - N/A   Overcast
4:52 AM 35.1 °F 30.1 °F 28.9 °F 78% 30.37 in 10.0 mi SSW 5.8 mph - N/A   Overcast
5:40 AM 33.8 °F 30.8 °F 30.2 °F 87% 30.33 in 2.5 mi SW 3.5 mph - 0.00 in Snow Light Snow
5:52 AM 33.1 °F - 30.9 °F 92% 30.39 in 2.5 mi Calm Calm - 0.00 in Snow Light Snow
6:00 AM 33.8 °F - 30.2 °F 87% 30.33 in 1.8 mi Calm Calm - 0.00 in Snow Light Snow
6:20 AM 33.8 °F - 30.2 °F 87% 30.33 in 2.0 mi Calm Calm - 0.01 in Snow Light Snow
6:52 AM 32.0 °F - 30.9 °F 96% 30.40 in 2.5 mi Calm Calm - 0.01 in Snow Light Snow
7:17 AM 32.0 °F - 30.2 °F 93% 30.34 in 1.2 mi Calm Calm - 0.01 in Snow Light Snow
7:35 AM 33.8 °F - 30.2 °F 87% 30.34 in 1.5 mi Calm Calm - 0.01 in Snow Light Snow
7:52 AM 33.1 °F - 30.9 °F 92% 30.43 in 1.2 mi Calm Calm - 0.01 in Snow Light Snow
8:06 AM 33.8 °F - 32.0 °F 93% 30.35 in 1.2 mi Calm Calm - 0.01 in Snow Light Snow
8:44 AM 33.8 °F - 32.0 °F 93% 30.36 in 0.8 mi Calm Calm - 0.02 in Snow Light Snow
9:08 AM 33.8 °F - 32.0 °F 93% 30.37 in 1.2 mi Calm Calm - 0.01 in Snow Light Snow
9:14 AM 33.8 °F - 32.0 °F 93% 30.37 in 2.0 mi Calm Calm - 0.01 in Snow Light Snow
9:21 AM 33.8 °F - 33.8 °F 100% 30.37 in 3.0 mi Calm Calm - 0.01 in Snow Light Snow
9:44 AM 35.6 °F 32.8 °F 32.0 °F 87% 30.37 in 6.0 mi North 3.5 mph - 0.01 in Snow Light Snow
9:52 AM 35.1 °F - 32.0 °F 89% 30.45 in 5.0 mi Calm Calm - 0.01 in Snow Light Snow
11:52 AM 37.9 °F 34.4 °F 32.0 °F 79% 30.44 in 7.0 mi NE 4.6 mph - 0.00 in Snow Light Snow
1:52 PM 39.9 °F 35.8 °F 26.1 °F 58% 30.40 in 10.0 mi NNE 5.8 mph - N/A   Overcast
2:52 PM 39.0 °F 34.8 °F 24.1 °F 55% 30.41 in 10.0 mi NNW 5.8 mph - N/A   Overcast
3:52 PM 39.0 °F 35.7 °F 25.0 °F 57% 30.40 in 10.0 mi NW 4.6 mph - N/A   Overcast
4:52 PM 39.0 °F 35.7 °F 25.0 °F 57% 30.40 in 10.0 mi WSW 4.6 mph - N/A   Overcast
5:52 PM 37.9 °F 35.5 °F 26.1 °F 62% 30.41 in 10.0 mi WSW 3.5 mph - N/A   Overcast
6:52 PM 35.1 °F - 26.1 °F 70% 30.42 in 10.0 mi Calm Calm - N/A   Overcast
7:52 PM 30.9 °F - 25.0 °F 79% 30.44 in 10.0 mi Calm Calm - N/A   Clear
8:52 PM 28.0 °F 24.2 °F 25.0 °F 88% 30.45 in 10.0 mi WSW 3.5 mph - N/A   Clear
9:52 PM 21.9 °F 15.7 °F 19.9 °F 92% 30.44 in 10.0 mi ENE 4.6 mph - N/A   Clear
10:52 PM 21.9 °F - 19.0 °F 89% 30.44 in 10.0 mi Calm Calm - N/A   Mostly Cloudy
11:52 PM 25.0 °F - 21.9 °F 88% 30.43 in 10.0 mi Calm Calm - N/A   Overcast